GFSGBSN_500_rhum_111.txt.gz
RH
72 69 57 56 56 52 48 44 41 42 44 46 45 35 33 41 51 59 49 36 26 38 75 46 46 96 70 20 14 11 9 18 22 28 52 56 52 75 100 91 83 88 100 100 100 92 95
72 62 58 58 56 56 54 47 45 46 49 41 36 32 25 32 56 70 60 43 30 22 32 35 83 88 35 15 11 10 10 22 32 31 62 62 77 82 87 79 86 78 100 98 96 99 100
72 63 63 63 66 62 58 54 56 58 44 42 38 30 20 25 48 70 67 49 36 24 27 51 95 91 33 15 11 10 10 24 31 35 42 48 62 69 66 58 64 92 93 95 97 100 98
78 70 68 70 70 66 61 57 58 48 39 40 38 28 22 27 33 68 71 59 42 25 22 33 92 87 33 13 11 8 10 23 30 31 31 37 57 49 39 46 59 65 75 81 96 96 96
76 72 68 74 69 61 56 59 56 53 50 50 43 30 23 27 28 50 65 65 46 24 20 23 96 87 33 13 12 8 10 17 23 27 30 30 38 28 30 38 46 60 85 98 93 97 96
77 68 65 66 64 56 54 63 62 64 66 63 39 31 14 13 11 18 38 48 52 27 20 28 94 85 30 13 11 9 9 13 17 20 29 33 40 31 24 30 38 55 69 93 94 99 96
75 62 64 58 61 60 67 70 71 72 76 55 35 13 11 11 12 10 11 14 48 33 19 39 97 89 28 11 12 8 8 9 11 14 22 29 33 48 31 30 38 66 74 92 90 89 83
64 58 55 59 56 54 67 80 87 90 74 52 20 16 19 26 20 12 8 11 24 30 19 42 93 53 28 14 11 8 8 8 8 9 11 22 26 33 42 54 59 63 66 67 64 54 65
60 58 57 60 53 58 77 96 95 84 58 28 19 28 46 38 32 25 9 9 19 22 19 52 95 42 28 18 12 8 7 7 8 8 8 9 17 26 32 37 38 48 50 51 58 59 53
59 59 62 61 61 68 90 100 86 52 29 43 48 55 61 52 38 31 18 10 16 17 33 62 79 37 28 22 14 10 8 6 6 5 5 6 7 8 15 26 28 30 32 38 43 54 51
64 66 68 67 72 82 99 86 60 33 58 74 88 76 78 69 50 33 25 12 12 17 42 56 59 38 29 27 18 12 10 8 5 4 4 4 4 4 5 7 13 20 23 27 27 30 42
65 70 77 78 80 84 89 67 31 63 51 96 100 100 98 86 47 22 19 12 12 26 41 88 49 36 32 33 23 16 11 9 5 4 4 5 6 6 6 6 7 10 16 24 23 23 26
72 80 82 77 74 92 82 37 62 43 96 100 100 100 100 61 25 16 13 16 18 31 60 80 45 33 36 37 27 20 12 9 5 5 5 6 6 6 6 6 7 18 22 64 35 23 26
76 81 77 63 72 88 48 54 81 70 100 100 100 100 96 32 32 14 16 15 19 37 97 62 37 34 42 41 32 22 13 8 5 5 5 7 6 6 7 8 8 77 97 91 99 98 55
77 83 67 52 67 77 38 96 71 72 93 100 100 100 63 35 23 43 46 28 62 100 99 49 40 43 48 43 34 23 14 9 6 5 6 7 7 7 7 8 11 45 69 90 100 100 98
82 81 61 51 70 56 45 94 76 73 92 100 100 87 37 66 62 99 68 63 100 100 96 49 48 50 54 47 36 23 14 9 6 6 7 8 7 7 7 8 15 24 100 97 99 100 100
83 75 59 57 74 33 71 91 72 77 93 100 98 66 38 35 100 100 99 92 100 100 79 50 52 57 56 47 34 21 12 9 7 7 8 8 8 7 8 7 8 35 74 90 100 90 100
83 70 56 53 66 29 95 94 75 61 95 100 100 81 98 80 62 100 100 100 100 100 57 53 57 61 56 46 28 19 12 9 8 8 8 8 8 9 8 7 6 17 35 74 100 100 94
83 71 48 45 42 42 100 94 80 57 93 99 100 93 100 86 84 81 100 100 100 100 75 56 63 65 58 42 26 18 13 10 9 8 9 9 9 9 8 8 8 9 30 59 86 96 100
80 63 44 36 22 43 49 65 72 55 87 97 95 61 39 65 42 84 100 100 100 100 73 62 67 69 57 38 25 19 15 12 10 9 10 10 10 10 10 10 8 9 18 46 61 77 90
76 55 43 24 19 28 22 21 39 56 81 77 90 71 42 23 40 96 100 98 100 100 56 67 74 71 52 34 26 21 17 15 12 10 10 11 12 11 10 10 10 9 14 34 52 52 68
74 54 40 20 21 32 25 12 35 58 65 57 59 30 30 32 88 100 100 100 98 80 60 78 78 66 46 31 25 22 20 18 14 12 11 12 12 13 11 11 11 10 10 22 50 61 62
72 55 38 14 16 23 16 22 36 46 42 38 21 21 39 72 97 100 93 99 89 69 74 84 77 58 44 29 26 23 21 19 15 13 12 13 13 14 12 12 13 12 11 12 18 26 40
69 51 37 13 13 16 19 24 26 28 19 12 15 42 68 89 91 85 82 89 84 69 85 84 69 54 41 28 26 24 23 20 16 14 13 14 14 14 14 13 14 15 12 12 11 12 32
57 46 31 13 13 10 18 21 19 13 13 14 42 69 88 98 98 79 82 86 84 83 84 77 61 52 37 28 26 25 24 21 18 16 14 14 14 14 15 13 15 18 15 14 13 12 8
50 42 22 12 9 8 11 14 13 16 32 50 68 79 83 88 78 78 80 81 81 89 82 64 58 50 36 28 27 26 25 23 19 17 15 15 15 14 15 14 14 18 18 18 16 14 12
50 43 24 12 8 11 12 13 19 31 41 41 55 71 80 74 69 75 81 78 74 90 74 58 54 46 35 28 28 26 24 23 20 17 16 16 16 16 15 16 14 19 18 17 18 16 13
57 44 39 15 8 12 13 14 19 28 34 38 52 62 67 66 62 76 78 77 76 93 73 58 51 41 33 28 28 26 24 22 20 17 17 17 18 18 17 17 15 20 16 18 20 21 19
61 49 45 33 8 10 15 16 17 23 29 38 51 67 64 68 65 74 78 78 78 86 92 65 51 39 32 29 28 26 24 21 19 18 18 19 19 19 19 18 19 20 20 18 18 20 25

GFSGBSN_500_rhum_114.txt.gz
RH
51 59 73 74 71 71 73 69 61 55 51 51 53 54 60 54 40 38 30 26 41 60 63 42 30 56 48 79 77 32 13 9 15 24 24 25 24 40 52 69 88 75 80 79 87 99 92
61 70 73 71 70 73 68 70 65 58 53 56 64 64 54 41 48 40 26 24 50 68 66 42 28 23 35 95 71 26 11 9 19 24 23 31 31 51 80 74 84 90 69 82 84 96 94
64 71 67 70 76 65 57 60 67 59 62 77 74 69 55 62 61 42 25 27 46 69 66 48 25 24 46 98 50 24 9 10 22 22 26 31 26 77 85 50 52 69 96 97 97 96 100
61 61 70 71 68 57 58 58 54 53 58 72 86 84 76 85 60 40 25 25 40 65 66 53 25 21 77 96 34 20 8 12 20 22 32 35 27 44 47 43 41 59 81 94 99 97 92
63 68 71 70 59 57 60 62 59 59 67 79 88 96 100 95 55 41 21 17 28 56 67 54 26 25 91 82 34 16 9 12 17 21 29 36 29 30 39 39 49 73 80 91 97 99 87
69 71 69 64 60 63 68 67 71 80 93 100 100 98 100 75 51 28 14 13 12 39 58 49 24 37 89 76 26 12 9 9 12 15 23 33 32 29 40 47 58 63 70 90 81 72 94
70 68 69 66 67 71 78 79 87 100 100 100 99 89 74 55 32 18 16 12 12 17 37 42 20 54 96 60 22 11 9 8 9 10 16 25 35 38 33 30 37 54 60 66 79 60 65
72 71 68 71 74 78 76 79 99 97 90 74 50 39 35 30 26 20 29 22 14 12 20 43 24 81 94 33 20 10 10 8 8 8 9 14 23 29 39 46 50 53 62 64 65 59 55
80 74 72 75 79 80 79 95 97 77 50 55 81 92 79 55 31 47 37 18 12 10 21 28 45 92 57 27 16 10 9 8 6 6 5 7 7 10 17 26 33 43 47 54 52 49 56
80 71 72 78 81 84 98 100 72 52 62 79 82 100 99 90 72 54 32 20 10 9 26 39 66 83 36 23 15 10 8 6 5 4 5 5 5 5 6 8 11 24 29 37 37 37 44
70 71 73 76 88 99 100 80 46 60 73 73 98 100 100 100 82 46 34 23 9 10 30 41 78 62 32 22 15 10 8 5 4 5 6 6 6 6 6 6 7 9 13 27 35 30 31
72 69 72 82 89 100 97 39 68 78 94 100 100 100 100 100 68 45 30 17 10 20 43 65 73 53 29 24 16 12 9 5 5 6 7 7 7 7 7 8 8 8 12 13 25 40 31
72 72 75 81 79 100 52 58 74 75 90 94 100 100 100 92 55 36 21 34 20 27 52 81 67 38 30 26 20 16 10 5 5 6 7 7 7 7 8 9 10 13 36 66 85 72 40
75 69 72 67 86 95 34 83 64 66 93 100 96 99 100 53 32 18 47 83 44 40 61 96 47 35 33 30 26 18 10 6 6 7 7 7 7 7 6 8 16 25 86 100 100 99 93
74 64 61 60 80 55 40 68 46 81 100 100 100 100 41 35 20 57 100 98 59 54 83 68 44 33 37 36 32 19 10 6 6 8 8 8 8 7 7 8 17 43 91 100 100 100 100
68 59 50 49 64 39 26 50 53 96 100 96 87 36 38 25 30 100 96 77 70 63 94 43 36 37 43 40 32 16 10 7 7 8 8 9 9 8 7 7 15 40 96 100 100 93 93
66 51 36 40 31 25 24 48 66 98 98 84 40 96 76 97 100 100 100 100 99 100 54 41 42 46 47 42 31 16 10 7 8 9 9 10 9 9 8 7 10 29 95 96 92 97 100
65 40 28 27 18 15 16 25 73 89 79 49 39 67 100 100 100 100 98 100 100 76 50 47 49 50 48 46 26 14 9 8 9 10 10 10 10 10 9 8 7 18 34 65 95 86 100
64 30 27 16 10 7 7 33 70 79 62 41 65 58 96 100 100 97 83 97 97 73 51 53 53 53 51 42 23 13 10 10 10 11 10 11 11 10 10 10 8 8 21 47 89 82 85
59 26 24 10 8 4 4 47 58 47 42 42 60 60 88 99 97 94 89 98 94 56 53 57 56 54 52 33 22 15 13 12 12 12 11 11 12 11 12 12 11 8 10 37 64 72 85
62 24 21 8 7 4 8 43 40 27 25 31 54 68 74 81 83 86 87 90 95 65 56 60 58 56 47 30 22 17 16 14 13 12 11 11 13 11 13 13 13 12 9 16 26 49 69
68 26 18 7 8 10 18 23 18 14 19 43 56 61 67 73 72 71 79 84 86 72 58 60 62 54 40 27 22 20 18 15 13 12 12 11 12 12 12 12 14 14 13 10 16 27 32
73 30 17 8 8 11 16 17 18 23 36 42 50 57 67 74 74 74 77 78 79 59 58 63 59 47 35 26 23 21 19 16 14 13 12 12 13 12 11 12 13 15 15 14 10 9 14
77 39 18 8 8 13 16 17 16 24 38 45 52 48 54 57 65 69 74 75 63 58 60 61 53 42 32 26 23 21 20 17 14 13 12 12 12 12 12 12 14 16 17 17 15 12 10
83 55 21 8 9 11 14 18 25 30 37 39 40 38 40 46 54 58 66 70 60 59 58 53 48 41 29 25 23 22 19 17 14 13 13 13 12 13 14 12 14 16 16 17 18 15 13
87 68 31 8 10 12 14 22 26 33 33 38 30 37 33 38 45 51 59 64 56 56 55 48 46 40 28 24 24 24 20 17 15 14 13 14 12 13 13 13 14 15 15 16 18 18 14
82 77 44 15 9 11 13 15 21 28 34 40 38 34 39 37 42 48 54 61 58 56 58 50 46 42 28 24 24 23 20 16 15 14 15 14 15 14 13 15 13 15 17 16 18 21 17
66 78 63 31 11 10 12 15 24 28 26 30 39 38 37 40 43 48 53 58 58 59 64 56 49 44 31 24 24 22 19 16 15 14 15 15 14 14 14 15 14 15 18 19 20 22 23
80 77 76 44 25 12 9 12 14 23 27 25 30 36 36 36 44 44 52 58 55 59 66 58 54 45 32 25 24 22 18 16 14 14 16 16 15 14 14 15 14 15 16 18 20 22 23

GFSGBSN_500_rhum_117.txt.gz
RH
58 58 60 61 62 66 64 66 66 69 67 63 58 54 56 64 74 74 72 55 45 55 40 26 42 62 53 36 38 58 94 28 11 9 20 25 35 30 31 45 51 55 55 55 74 73 84
62 64 64 63 69 66 67 73 85 93 94 89 89 93 89 84 87 96 91 60 68 52 30 30 49 66 50 30 44 53 69 17 8 15 19 29 33 25 43 44 54 51 56 60 74 71 76
68 68 67 69 68 70 80 96 94 96 96 92 90 95 99 97 97 99 100 89 78 42 28 34 64 60 41 26 29 78 28 10 10 19 21 35 27 28 28 34 39 54 77 92 99 100 100
72 72 75 80 83 88 96 96 96 96 99 100 100 98 100 100 99 98 99 99 67 40 26 39 68 55 34 23 46 59 17 8 10 19 26 32 28 28 34 44 46 68 90 98 98 92 86
72 76 83 94 93 98 98 97 96 98 99 99 98 100 100 100 100 100 100 87 54 38 23 41 67 55 27 26 90 37 12 8 11 17 22 32 37 32 33 47 66 79 85 90 97 98 83
68 73 77 89 98 100 99 99 97 100 97 95 100 100 98 95 98 100 100 94 54 26 15 42 67 48 23 51 84 21 9 8 10 12 17 30 27 38 43 52 53 61 63 66 87 74 93
54 54 79 90 100 99 98 97 92 88 57 54 56 63 67 57 59 81 96 77 32 15 12 30 51 34 27 71 52 14 10 8 8 8 10 16 24 36 44 44 45 40 50 60 70 61 56
52 59 72 89 100 100 100 99 82 42 60 92 100 100 100 100 66 42 41 27 18 18 13 17 46 22 34 84 23 10 8 7 6 5 6 7 8 11 20 31 40 34 43 57 58 65 57
57 66 75 88 100 100 100 80 37 70 99 92 100 97 99 100 99 46 31 27 25 20 14 18 38 23 78 44 17 9 7 6 5 5 6 6 6 6 7 8 9 27 44 52 48 54 48
65 71 72 89 100 100 89 26 88 99 97 100 100 100 100 100 100 61 30 33 25 18 14 24 24 42 71 26 14 10 6 5 5 6 6 6 7 7 7 8 8 11 12 22 32 37 42
71 72 64 92 100 98 37 39 98 87 100 99 98 99 100 100 91 71 38 21 13 12 23 24 43 78 33 19 12 9 6 5 6 7 7 7 7 7 8 9 10 12 11 11 19 30 35
70 67 55 81 100 54 29 68 66 84 100 99 98 100 100 95 54 32 17 10 10 23 35 36 68 56 26 16 12 8 5 5 7 8 8 8 7 7 8 11 11 14 17 15 14 20 36
73 61 45 62 82 22 18 45 78 96 86 77 89 96 61 39 31 21 11 13 45 33 58 64 66 34 24 16 11 7 5 6 8 8 8 8 8 7 9 14 20 23 36 43 56 30 52
68 57 37 48 31 13 12 68 77 76 82 78 82 62 39 25 21 70 96 56 59 78 84 76 53 30 23 18 12 8 6 7 8 8 9 8 8 8 8 17 50 68 93 100 100 91 77
66 53 33 29 8 5 30 52 55 60 69 70 76 32 22 35 100 100 90 58 65 87 80 52 35 28 26 22 16 9 6 8 9 9 10 9 9 8 8 18 47 78 100 100 100 100 92
66 51 26 17 6 3 29 42 53 57 59 51 36 25 22 99 97 62 68 57 79 94 53 40 31 30 28 26 18 9 7 9 10 10 10 10 10 9 8 14 38 59 92 90 99 99 100
68 50 20 10 5 3 24 40 44 34 32 27 21 19 78 90 61 72 58 67 86 68 44 35 33 33 33 29 18 9 8 10 10 10 11 10 10 10 8 7 19 62 66 73 71 67 100
68 48 18 7 5 3 19 31 33 25 18 19 27 53 56 58 49 50 61 69 79 45 38 35 38 38 36 27 14 9 10 11 11 10 11 10 11 11 9 8 8 25 53 57 67 100 96
71 50 16 7 5 5 11 16 20 15 13 15 40 44 37 50 64 71 65 70 57 39 38 40 43 41 35 22 13 10 12 12 11 10 10 9 9 12 11 9 8 16 44 44 65 78 81
74 52 17 7 7 6 10 9 11 18 25 19 24 36 45 49 50 54 61 59 43 37 40 40 43 39 32 21 14 13 14 12 11 10 10 8 9 11 13 12 10 8 14 32 36 53 63
78 56 16 7 9 6 8 9 15 43 56 49 35 36 37 41 46 50 50 44 38 37 39 39 40 36 26 21 16 16 15 12 11 10 9 9 8 9 11 13 12 11 9 9 21 38 44
78 60 16 8 7 6 10 20 36 54 58 45 30 26 29 34 39 46 47 35 35 35 36 37 39 32 24 21 19 18 16 12 11 10 10 8 8 9 11 11 12 13 12 11 10 11 12
76 61 19 12 8 13 32 38 39 38 38 40 42 32 25 26 32 38 43 35 32 31 34 35 34 28 22 20 19 19 16 13 11 10 9 9 8 9 10 11 11 13 14 12 11 11 10
65 65 29 11 13 19 31 31 32 31 32 29 35 39 29 25 28 34 39 37 34 29 31 33 31 28 21 20 19 18 15 13 11 10 9 9 8 8 10 12 11 12 13 13 12 11 10
58 70 53 10 17 22 22 25 24 23 24 26 26 30 34 30 30 32 38 40 38 31 33 32 31 29 22 20 19 18 14 12 11 11 10 9 8 8 9 11 13 12 12 13 11 12 12
48 75 66 32 14 12 18 18 21 20 20 19 21 24 28 34 33 36 37 39 36 35 39 32 31 31 24 20 19 18 16 12 11 12 10 10 8 8 8 10 12 13 13 14 13 13 13
51 58 76 62 38 11 12 16 15 16 20 18 19 20 21 26 31 33 38 39 34 34 39 34 32 34 30 21 21 20 17 13 12 12 12 10 10 8 8 9 10 11 13 14 14 15 16
57 48 77 77 62 36 16 11 13 14 24 25 23 22 23 27 32 32 33 37 41 37 39 38 31 37 35 28 21 21 18 15 12 12 13 11 10 9 9 9 10 11 13 15 16 17 17
66 53 48 67 78 66 38 27 12 11 15 16 26 24 26 25 28 34 36 36 42 42 41 47 41 33 38 32 24 21 20 17 14 12 13 13 12 11 9 9 9 10 12 14 16 18 19

GFSGBSN_500_rhum_120.txt.gz
RH
46 50 52 47 65 97 99 95 97 97 96 96 98 98 98 98 99 100 99 98 97 98 80 53 58 55 40 28 52 43 35 39 66 55 12 13 26 25 28 26 32 38 44 52 52 49 48
49 46 46 49 67 88 98 98 98 95 95 99 98 99 100 99 98 99 99 99 98 98 92 68 77 47 21 55 43 44 38 38 69 17 11 22 32 25 28 38 41 48 53 48 56 73 72
52 49 54 54 78 100 99 97 96 94 97 99 100 100 100 100 100 100 100 99 98 99 95 84 49 22 39 52 42 30 30 61 22 10 21 30 29 26 30 40 48 57 65 68 76 87 96
55 44 44 69 93 100 98 98 96 82 97 100 100 100 100 100 100 100 100 100 100 99 96 67 29 23 69 48 27 28 71 30 11 11 25 28 30 23 30 49 55 67 80 91 84 87 77
47 39 41 84 100 100 99 100 84 86 99 100 100 100 100 100 100 100 100 100 100 100 91 42 25 52 62 32 24 80 41 13 9 15 21 24 28 28 25 34 62 74 76 91 97 96 89
42 35 53 90 100 100 100 67 33 98 99 100 100 100 100 100 83 100 100 91 100 98 52 26 41 69 47 28 63 53 12 10 9 12 13 16 30 35 34 39 43 50 69 69 80 81 73
37 36 56 84 94 100 54 12 91 100 100 94 100 95 90 100 100 70 95 100 100 63 43 21 42 61 35 43 84 16 10 7 6 6 7 9 9 10 24 36 41 44 38 44 55 72 91
40 34 51 90 100 62 10 23 91 96 96 85 73 90 80 100 100 69 97 100 95 39 23 18 50 50 24 65 29 9 7 6 6 6 6 7 7 7 8 9 10 20 41 39 46 57 87
37 34 52 83 77 13 14 50 78 93 100 100 94 100 100 99 99 69 74 100 58 19 14 21 46 28 34 62 13 9 7 6 5 6 6 7 7 7 8 10 10 10 14 28 44 51 48
36 33 56 57 20 9 40 61 70 70 88 100 100 92 91 93 99 61 50 32 17 18 15 32 31 26 78 21 10 7 6 6 7 7 7 8 8 8 10 11 10 13 13 11 21 34 40
32 28 51 37 7 15 46 58 66 69 72 83 98 100 100 95 55 34 30 22 21 20 24 35 35 60 32 15 8 7 6 7 8 8 8 9 9 10 15 15 17 22 17 14 14 36 41
28 27 33 21 4 19 40 50 60 62 61 69 78 73 59 51 42 36 30 26 20 20 27 36 66 50 19 12 9 6 6 8 9 9 9 9 9 13 16 20 31 28 20 16 15 38 37
24 27 24 11 4 20 28 34 36 50 42 35 34 33 30 29 26 20 17 15 25 25 46 68 46 22 16 11 6 6 8 8 10 10 9 7 9 14 23 50 54 53 39 26 30 49 46
26 28 19 8 4 11 27 25 32 50 37 27 20 28 13 10 10 14 26 32 32 50 60 50 26 19 16 8 6 7 9 10 11 10 8 7 7 10 27 56 62 86 100 100 45 100 64
28 29 13 7 4 7 14 26 33 35 27 39 49 42 14 26 42 40 42 49 52 60 39 25 21 19 14 9 7 8 10 11 11 10 9 7 7 9 27 41 85 99 100 100 98 84 79
30 28 9 6 5 3 6 12 15 15 14 18 31 36 36 43 60 67 72 54 49 35 27 23 20 18 13 10 8 9 10 11 10 10 10 8 8 8 12 39 70 79 98 99 93 85 92
32 27 8 6 5 4 5 8 10 13 18 21 31 33 44 51 54 66 63 40 27 21 20 22 21 18 14 10 8 11 10 10 10 10 10 9 8 8 9 13 46 55 64 67 67 74 58
34 28 11 6 6 4 6 8 12 18 23 25 28 32 39 39 52 59 49 27 17 16 18 22 24 22 14 9 10 12 11 9 10 10 10 10 9 8 8 10 21 30 45 56 55 53 55
35 29 11 7 6 6 8 12 14 18 24 31 32 27 30 32 44 44 28 22 17 15 19 22 25 21 15 10 12 12 11 10 9 8 7 9 8 8 8 9 10 28 43 60 53 46 42
40 30 17 7 6 7 10 14 18 20 22 22 26 21 23 25 30 28 23 20 19 18 20 22 22 20 16 13 14 12 11 10 9 7 8 8 8 9 9 10 9 9 10 22 40 54 53
47 35 27 8 6 7 11 14 18 20 23 23 24 22 21 18 16 20 19 18 18 18 20 22 22 19 17 15 15 13 11 10 9 8 6 7 8 8 10 10 10 10 10 9 8 10 15
55 45 32 11 7 12 15 17 18 18 18 18 23 26 23 20 15 13 15 18 19 17 21 23 21 19 17 16 15 12 11 10 9 8 6 5 7 8 8 9 9 11 11 10 10 9 7
60 55 36 19 9 11 18 18 16 16 16 16 21 26 30 26 20 16 16 16 17 16 19 22 22 19 18 16 15 13 11 10 10 9 8 6 6 7 8 9 9 9 11 11 11 10 10
67 57 47 26 14 12 13 15 17 15 16 17 21 23 23 20 24 24 15 17 18 16 18 21 22 19 18 17 15 14 11 10 10 10 10 8 7 7 8 10 10 10 12 11 11 12 12
91 79 60 33 19 16 13 18 15 15 14 15 14 19 22 24 27 29 30 24 20 18 18 19 21 22 18 17 16 14 12 10 10 10 10 9 7 7 9 9 10 11 12 13 13 13 14
94 82 63 56 31 18 14 10 15 15 17 17 18 16 17 20 23 31 34 33 27 22 19 22 23 22 21 17 17 16 14 11 10 11 10 10 8 8 8 9 10 11 12 13 13 14 15
87 86 48 62 57 45 29 12 10 11 14 14 20 21 19 19 20 24 26 35 41 37 29 28 26 24 22 21 17 18 17 14 11 11 11 11 10 8 8 9 10 11 12 13 13 14 15
91 87 58 45 53 54 42 40 19 11 11 12 13 18 25 24 23 24 29 32 36 44 41 38 36 31 26 25 24 18 18 18 14 12 11 12 11 10 10 9 9 10 11 12 12 12 14
94 91 72 56 42 47 52 50 51 28 17 15 10 11 12 15 18 21 24 26 31 33 40 45 44 43 34 28 29 27 19 19 18 15 13 13 14 13 13 11 10 10 11 12 13 13 13

GFSGBSN_500_rhum_123.txt.gz
RH
35 32 31 37 62 100 97 99 96 92 100 100 100 100 99 100 100 99 99 99 99 98 98 98 95 89 57 58 57 40 34 37 40 38 48 72 55 14 26 29 28 27 21 19 23 29 26
38 38 36 50 96 99 99 65 25 100 100 100 100 100 100 100 100 99 100 100 99 99 99 97 96 82 68 61 44 35 35 42 38 50 68 50 13 25 36 28 31 38 39 42 43 41 49
46 38 46 65 95 97 28 8 45 100 100 100 100 100 100 100 100 100 99 100 99 99 98 96 95 77 65 39 33 33 37 36 49 70 71 14 19 37 32 31 31 42 43 56 61 54 46
38 35 39 55 90 18 9 30 71 90 99 99 100 99 91 100 100 100 100 100 100 99 98 99 90 70 36 28 27 36 29 61 72 53 12 18 30 34 28 31 39 46 59 64 80 69 61
40 37 46 77 27 14 43 52 62 81 81 84 99 95 97 100 100 100 98 100 100 99 97 97 69 45 24 28 47 30 69 92 37 12 11 23 27 32 29 30 32 49 64 69 76 88 94
39 41 54 58 7 40 50 67 74 93 72 92 82 69 99 100 100 84 100 100 98 98 100 67 40 23 26 48 28 53 87 21 10 11 15 17 16 20 30 34 37 40 43 67 70 60 89
37 37 58 20 13 36 49 60 72 79 93 100 93 70 93 100 100 68 100 93 100 100 81 38 26 30 50 32 54 60 14 9 6 6 7 7 8 8 10 14 22 33 44 50 57 60 70
36 32 42 8 12 32 38 44 67 92 100 90 99 87 100 99 96 86 80 63 100 75 34 25 25 47 35 58 52 13 8 6 6 6 6 7 7 8 9 10 10 9 9 22 44 44 58
34 33 29 6 10 32 35 35 44 70 87 80 77 78 72 94 82 96 88 85 76 35 22 26 49 36 43 47 13 7 6 6 7 7 8 9 10 11 11 12 12 13 13 11 19 46 48
32 30 15 5 7 23 35 32 31 40 42 74 69 64 65 71 92 100 92 59 29 20 23 42 42 36 50 14 8 7 7 8 9 9 10 11 13 15 19 22 22 25 23 14 15 38 51
31 30 10 4 4 14 22 20 20 26 31 41 53 62 72 78 80 80 49 32 18 19 38 38 38 39 14 10 8 8 8 10 10 8 10 12 20 31 40 47 39 38 31 19 17 24 38
30 31 7 3 3 7 11 10 11 14 20 31 42 40 44 41 37 27 18 16 23 32 30 37 38 15 11 7 7 8 10 10 9 8 8 11 19 34 43 66 75 37 28 22 22 32 40
32 26 6 2 4 6 11 13 13 12 13 15 20 32 34 27 22 19 20 30 32 31 36 23 14 11 7 7 8 9 11 11 10 8 8 10 21 37 46 58 49 43 30 49 35 78 48
33 21 6 4 7 10 19 25 29 29 24 20 19 19 19 20 24 29 32 31 32 24 15 11 10 7 6 8 10 11 11 10 9 8 8 8 18 41 80 94 100 100 46 34 99 90 53
34 22 6 5 10 12 15 20 18 23 18 20 18 27 30 32 31 31 32 35 11 10 11 8 7 7 8 9 10 11 11 10 10 8 8 8 14 50 80 94 91 68 51 97 99 75 53
34 24 6 6 10 12 12 14 14 17 22 17 21 20 23 25 24 23 33 9 6 6 7 9 9 8 8 10 10 10 10 10 9 9 8 8 9 24 49 62 82 81 74 60 57 51 39
28 25 7 7 9 12 12 13 13 14 16 15 17 19 11 8 8 15 12 5 5 6 9 11 10 9 10 12 11 10 9 9 9 9 9 8 8 9 18 36 46 52 56 61 57 51 42
30 24 10 6 10 12 12 12 13 15 14 17 19 15 7 6 8 9 8 7 6 7 11 13 12 10 11 12 10 9 8 8 8 9 9 8 8 8 8 8 20 37 41 44 49 48 46
35 27 18 7 8 12 12 12 12 14 14 14 13 16 7 7 6 6 6 7 11 14 16 16 15 11 12 13 10 8 8 8 7 8 8 9 8 8 9 9 8 10 17 28 43 49 44
39 25 23 8 7 12 12 12 14 15 18 15 17 18 15 8 7 7 7 9 13 14 15 16 16 15 14 14 12 8 7 7 6 6 8 8 8 8 9 9 9 9 8 8 10 18 17
53 25 25 17 8 10 13 12 14 13 13 15 15 16 13 8 8 8 9 10 12 13 14 15 15 15 15 14 12 10 8 8 7 7 6 8 9 9 10 10 10 10 9 9 8 8 7
63 32 32 26 8 10 14 13 12 12 12 13 14 18 20 21 11 11 11 11 11 12 15 15 14 14 15 15 12 10 8 8 7 8 6 7 9 10 10 11 11 11 12 11 10 9 8
68 59 40 29 25 9 12 14 13 11 12 13 14 17 18 17 15 16 14 15 17 15 16 16 15 14 15 14 13 10 9 8 8 8 7 6 8 9 10 11 11 11 12 12 12 11 10
73 66 51 35 31 21 9 12 14 13 12 12 13 15 20 23 23 21 20 17 16 16 17 16 16 15 14 15 15 12 9 8 8 8 8 7 7 8 9 10 11 11 12 12 12 12 11
78 75 69 44 34 30 22 11 11 16 17 15 17 16 14 18 20 24 28 28 24 20 18 16 18 18 16 13 14 14 13 10 9 9 9 9 7 8 9 9 10 11 12 12 11 10 12
78 75 70 56 43 36 30 22 12 11 10 14 15 18 19 16 16 19 20 28 30 30 28 25 23 24 22 19 14 14 14 13 11 10 10 10 9 8 8 9 10 10 11 13 12 11 10
70 77 75 74 51 39 47 36 29 21 9 10 12 13 12 20 21 20 19 24 30 36 38 34 29 28 28 26 22 18 15 16 15 12 11 11 11 10 8 8 9 10 11 12 13 12 10
71 72 86 86 75 54 42 52 36 33 27 12 11 10 10 11 12 18 21 22 23 26 33 39 43 40 38 36 32 27 22 18 17 16 13 11 12 12 12 11 9 8 10 11 12 12 12
84 82 75 83 90 78 45 46 45 40 34 36 26 22 18 12 11 13 14 16 14 18 27 31 33 36 41 45 42 38 33 31 24 19 18 16 14 13 13 13 12 10 9 10 12 12 13

GFSGBSN_500_rhum_126.txt.gz
RH
28 36 47 44 16 15 33 27 36 47 57 82 100 100 100 100 100 100 96 99 99 99 99 97 98 97 94 96 80 70 60 51 43 27 25 25 37 47 68 62 30 19 25 22 19 14 11
24 38 50 24 6 33 32 34 58 67 91 78 69 92 100 100 100 100 92 98 97 100 100 98 99 97 91 77 65 56 40 31 23 22 28 36 40 72 44 15 22 30 32 34 45 36 34
28 54 36 5 16 33 37 43 72 87 90 67 74 90 86 100 100 100 81 100 100 99 97 99 98 90 77 65 51 33 19 19 24 33 34 52 78 55 17 23 32 32 39 42 48 38 46
43 47 9 3 14 36 33 46 75 100 93 90 100 72 84 80 100 99 86 100 100 97 100 96 89 68 66 50 36 22 16 22 33 33 69 63 26 14 27 34 30 34 36 49 52 56 65
50 30 3 4 15 25 29 45 82 100 93 94 75 73 88 85 84 96 99 100 96 91 96 90 66 58 34 22 17 15 26 32 69 59 22 10 13 22 29 35 33 32 36 49 64 59 60
46 9 2 4 10 14 28 40 59 85 92 79 71 66 73 100 51 95 100 96 96 99 93 63 48 27 19 15 17 31 43 38 15 10 10 13 17 20 21 21 28 33 36 38 61 66 55
42 3 4 4 7 15 23 40 55 52 58 82 86 81 83 76 61 96 96 100 89 72 48 33 24 18 13 29 34 32 13 8 7 7 7 8 8 9 11 11 14 16 25 30 46 56 63
31 4 4 4 6 12 21 36 43 54 60 66 82 72 72 40 94 98 86 70 61 37 23 22 17 18 35 33 22 9 7 6 6 7 8 9 10 10 11 12 12 12 11 14 26 46 40
18 6 5 6 8 8 18 27 22 32 47 54 52 44 46 94 92 72 65 48 28 25 23 18 30 39 32 16 7 6 8 9 9 10 12 13 16 19 22 25 23 22 19 14 12 24 21
12 9 6 8 12 9 11 17 22 25 36 45 34 27 42 43 52 46 36 27 20 18 26 36 36 19 9 7 7 9 10 10 10 12 14 20 26 34 44 44 42 43 36 22 18 15 12
14 10 7 8 11 13 11 12 13 13 13 17 32 20 20 23 30 30 22 21 23 27 25 19 13 8 8 8 9 10 10 10 10 10 15 27 23 32 37 57 69 49 39 32 22 16 11
20 9 10 9 9 13 14 12 12 14 15 14 14 16 21 21 19 20 21 21 21 19 14 11 8 7 8 9 10 11 11 10 9 10 16 40 56 80 79 57 50 44 40 31 21 18 14
29 7 11 9 9 11 13 12 10 11 14 16 16 16 14 18 20 20 16 14 13 8 8 7 7 8 10 10 10 11 11 10 9 10 12 40 71 92 97 100 67 31 29 25 31 53 39
32 6 11 10 8 9 9 12 12 8 9 12 11 12 15 10 8 10 10 9 6 6 7 8 9 9 10 10 10 10 11 9 9 9 11 21 50 76 66 76 41 41 28 38 100 100 59
33 17 9 12 8 7 8 8 8 8 6 7 6 5 6 6 7 5 5 5 6 6 8 9 9 10 9 9 10 10 11 10 9 9 10 12 21 43 65 62 64 85 96 89 66 53 56
35 24 6 12 10 7 7 5 7 6 5 5 5 5 5 5 5 5 6 6 7 8 8 9 10 10 10 9 10 9 9 9 10 9 9 10 11 15 26 42 57 61 65 66 66 51 44
31 18 11 11 13 10 8 6 6 6 5 5 4 5 5 5 5 5 6 7 8 9 9 9 11 12 11 10 9 8 9 9 9 10 10 9 9 9 10 20 30 36 47 50 53 46 40
27 19 23 6 13 13 10 10 8 5 6 5 5 5 4 4 5 6 6 10 11 11 11 10 10 12 12 10 8 8 8 9 10 9 10 10 10 10 10 9 9 12 30 36 39 40 40
31 28 16 14 8 13 12 10 11 8 6 8 5 5 5 5 5 6 10 13 13 13 12 12 12 12 13 11 9 7 8 7 8 9 10 11 11 11 10 10 9 9 9 9 16 24 31
46 34 21 16 8 11 13 13 12 12 11 9 9 6 6 5 5 6 8 12 13 13 13 12 12 12 12 11 9 7 7 7 7 9 10 10 12 12 12 12 11 10 8 8 9 8 6
63 46 40 18 17 9 13 13 12 12 13 15 13 11 8 7 6 6 9 10 12 13 14 12 12 12 12 12 10 9 8 8 7 7 9 10 11 12 12 12 12 12 11 8 7 8 10
65 66 49 26 18 20 10 12 14 12 11 12 14 18 16 15 14 9 12 12 11 13 14 16 15 13 14 12 11 11 8 8 8 8 7 9 10 11 12 12 11 10 10 10 8 7 7
62 61 55 30 18 19 19 10 12 14 13 13 13 14 17 21 21 21 18 16 17 17 17 18 18 16 13 13 12 11 10 8 7 8 8 7 9 10 11 12 11 10 7 7 9 9 9
58 62 63 57 44 21 16 26 18 11 12 16 18 18 17 17 19 22 25 26 26 23 20 18 18 18 19 18 15 14 12 9 8 8 9 8 8 10 10 11 11 10 8 6 6 6 7
52 59 60 64 58 47 41 22 23 23 20 12 12 14 17 17 17 17 19 22 27 29 28 24 22 21 22 22 22 18 15 14 11 9 9 10 9 8 9 10 11 11 10 8 5 5 5
53 50 58 63 62 57 56 51 31 20 22 25 18 10 10 13 15 17 19 19 20 24 32 36 34 31 29 28 27 26 24 17 16 15 11 10 10 10 8 9 10 11 12 10 8 6 5
57 51 58 61 60 59 62 64 54 36 23 28 30 28 16 10 10 11 12 19 20 20 22 26 30 37 39 37 34 35 31 29 25 20 18 15 11 11 11 10 9 9 11 12 11 9 6
64 62 62 62 64 66 66 66 68 56 33 27 30 33 30 38 20 14 11 10 11 14 17 18 23 27 28 36 42 42 39 37 34 32 28 21 18 14 12 12 12 12 9 11 12 12 11
65 66 72 71 68 72 75 71 76 73 67 41 32 34 37 31 44 44 34 20 14 11 10 10 10 11 15 23 26 31 36 42 45 41 37 34 28 21 18 14 13 13 13 11 10 12 13

GFSGBSN_500_rhum_129.txt.gz
RH
4 4 5 5 12 30 54 70 100 100 96 78 75 65 99 100 99 100 86 96 98 98 100 96 95 88 88 92 92 90 84 75 67 58 48 38 26 19 20 23 24 32 52 48 40 25 22
4 5 6 7 19 39 51 75 78 85 100 93 97 78 86 100 98 93 79 96 98 100 98 93 93 92 92 85 81 69 60 50 34 23 17 16 20 22 24 34 44 64 55 31 22 32 30
6 6 6 8 20 34 63 68 75 84 100 92 69 68 89 89 69 90 90 100 100 93 95 88 92 86 78 68 61 51 34 23 14 14 18 22 25 28 39 66 60 28 15 30 30 33 37
6 6 6 9 20 37 54 82 64 68 63 67 73 77 98 67 67 100 99 93 80 85 82 88 80 70 51 44 32 23 16 13 15 20 27 29 36 66 67 35 15 19 30 34 34 38 43
6 5 6 9 24 15 23 35 34 49 48 57 52 62 49 77 88 96 82 70 68 74 66 82 42 23 19 14 12 12 15 20 29 38 51 42 28 17 12 13 18 28 31 32 37 41 52
7 4 5 8 12 14 28 47 25 29 34 36 43 48 54 74 84 82 74 73 72 79 52 22 17 14 12 12 13 8 8 9 9 10 10 10 10 11 13 15 22 27 33 32 40 38 49
8 3 4 6 9 11 15 43 49 56 39 29 56 90 59 82 67 67 68 74 50 26 12 14 8 12 12 8 7 6 6 7 7 8 10 10 13 12 11 11 12 15 19 24 35 40 35
9 5 3 5 7 10 10 20 26 38 33 29 46 57 59 52 51 48 42 36 20 14 10 10 11 9 6 6 7 7 8 9 10 11 13 16 19 20 21 20 18 14 13 14 16 24 33
9 7 3 3 5 7 10 12 19 16 12 15 16 15 18 16 17 18 20 21 16 14 11 9 6 6 7 8 9 9 10 10 11 14 25 31 28 22 26 33 32 32 26 18 12 14 13
9 10 4 3 3 5 8 8 12 13 13 14 14 12 11 13 15 16 14 12 10 11 7 7 7 7 8 8 9 10 9 10 11 18 36 44 54 62 28 33 41 42 31 24 19 15 10
10 12 5 4 4 3 4 5 8 11 12 9 11 10 9 6 6 7 8 9 9 8 7 8 8 8 9 10 10 10 9 10 12 18 40 66 69 92 87 35 60 100 45 26 29 16 12
7 10 9 5 4 4 3 4 4 5 6 6 5 7 8 12 9 8 7 7 7 7 8 8 9 9 10 10 11 10 10 10 11 15 35 54 68 52 84 44 37 40 51 42 28 16 11
13 10 11 7 5 4 4 4 4 4 4 4 5 5 6 6 6 7 6 6 6 7 8 9 9 9 9 10 11 11 10 10 11 12 20 39 59 62 66 51 27 30 33 29 32 21 18
41 7 9 11 5 4 4 4 4 4 4 4 4 4 5 5 6 6 7 7 7 8 8 8 9 8 9 10 10 11 10 10 10 11 13 16 27 59 61 81 80 47 70 55 46 57 51
64 23 9 9 10 5 4 4 5 5 4 4 4 4 4 5 5 6 6 7 7 7 7 8 8 8 8 9 10 11 11 11 11 11 12 13 16 24 45 46 72 78 75 60 47 55 54
56 44 15 10 10 10 6 4 4 4 5 5 5 5 5 5 6 6 7 8 8 9 10 9 9 8 8 8 8 9 10 11 12 11 11 11 12 12 15 22 36 44 49 49 30 34 52
46 47 36 10 11 11 11 9 4 4 4 4 4 4 5 5 6 7 10 13 12 11 10 10 10 10 9 8 8 8 8 10 11 12 12 12 11 11 10 9 12 22 32 34 33 30 41
53 47 44 34 8 12 12 12 11 7 6 6 5 5 5 5 7 8 11 12 13 12 12 12 12 12 11 9 8 8 7 9 11 12 13 12 12 12 11 10 10 9 7 11 24 16 28
63 60 51 46 34 8 13 13 13 13 8 7 6 5 5 5 5 6 9 11 12 11 12 12 13 13 11 11 10 8 8 8 9 10 12 13 13 12 12 11 10 9 9 8 6 5 10
59 64 58 48 48 35 10 11 12 12 14 15 14 12 9 7 6 6 6 9 12 12 14 14 14 14 13 12 11 10 9 8 8 9 10 11 12 14 13 13 11 9 8 8 9 10 8
54 59 62 55 32 46 32 12 11 12 12 12 14 15 16 17 16 17 14 10 11 12 14 14 15 14 13 13 12 11 10 8 8 8 9 10 10 11 13 12 12 11 10 9 9 9 9
53 56 55 57 42 33 36 30 17 10 11 13 13 13 14 16 18 18 19 21 20 20 17 16 16 16 16 16 14 13 12 9 8 8 9 8 10 10 10 10 10 9 7 7 8 8 9
56 50 52 56 47 32 33 37 28 24 20 11 11 13 15 14 14 16 18 21 24 24 26 24 22 18 17 18 18 17 15 14 11 9 9 9 8 10 10 9 9 9 7 6 5 6 6
57 48 48 53 54 46 41 36 31 33 28 26 24 16 12 13 14 14 15 16 18 21 23 26 28 26 23 22 21 20 20 18 16 14 11 10 10 9 9 10 9 8 8 7 5 5 5
57 50 49 50 52 49 50 45 47 44 33 31 35 32 25 16 11 10 12 14 15 16 17 18 23 30 31 31 32 30 26 26 26 19 16 15 12 11 11 9 10 11 8 8 6 5 5
52 54 54 54 54 48 51 52 52 54 54 52 46 42 42 37 37 22 11 9 9 11 15 17 17 19 22 26 30 34 37 33 33 32 30 22 19 17 12 12 10 9 11 10 8 7 6
59 49 61 64 57 54 49 52 56 53 57 61 60 49 36 45 54 46 39 28 14 11 10 10 12 15 15 15 15 21 24 33 39 41 39 36 32 24 20 16 12 13 11 10 11 9 8
58 56 52 65 68 63 58 56 53 58 61 59 64 61 57 51 53 57 48 43 43 35 28 18 11 10 9 10 10 10 12 19 27 31 36 37 37 34 31 23 19 16 14 13 11 11 11
58 58 56 54 69 69 69 67 64 62 67 64 66 66 65 65 75 62 65 57 51 52 47 45 42 26 10 12 14 10 9 10 14 22 27 29 35 38 42 40 32 24 19 14 14 13 10

GFSGBSN_500_rhum_132.txt.gz
RH
2 2 3 7 24 26 40 60 78 97 89 58 53 87 94 85 81 74 74 75 90 94 96 94 92 87 80 75 76 70 65 67 70 70 68 68 70 59 51 41 34 23 18 13 16 18 14
2 2 3 8 29 40 28 34 46 52 52 57 79 42 52 67 76 93 87 88 85 92 86 95 83 72 66 60 51 61 67 71 60 57 49 36 31 27 22 17 15 15 19 26 26 25 25
2 2 3 8 24 36 34 25 41 46 49 38 32 61 66 88 100 99 90 85 85 78 70 69 62 54 47 43 46 44 45 35 27 22 19 19 21 23 26 25 27 31 40 45 50 46 39
2 2 3 5 20 37 22 28 40 29 38 66 97 97 75 70 96 86 70 62 64 65 51 36 29 22 24 25 26 24 21 16 16 18 24 31 34 40 46 46 48 56 60 53 34 27 27
2 2 2 4 11 29 25 35 29 28 24 42 77 84 87 86 67 65 58 52 46 32 25 28 19 13 12 10 12 14 19 19 21 29 31 27 26 24 22 25 30 24 19 15 19 24 28
3 2 2 3 6 14 22 28 36 30 25 42 45 53 59 59 56 45 36 30 20 24 32 18 12 9 8 10 7 7 7 8 9 10 12 15 15 14 13 14 14 15 16 18 30 33 31
3 2 2 2 3 8 11 15 14 21 27 19 20 14 14 22 27 29 22 19 21 14 9 6 7 6 6 6 7 8 9 10 11 13 16 22 27 28 25 21 17 14 13 17 27 34 32
3 3 2 2 3 3 7 10 12 11 12 11 12 9 8 8 8 10 10 9 6 5 6 6 6 6 7 8 8 9 10 10 12 20 37 43 53 57 31 23 26 20 15 12 15 20 28
4 3 3 3 3 3 3 4 8 10 8 8 9 9 11 8 5 4 5 6 6 6 6 7 7 8 8 9 9 10 10 10 14 26 50 59 84 92 60 28 30 30 21 15 12 11 12
11 4 4 3 3 3 3 3 4 4 5 4 4 4 4 5 6 5 5 5 6 7 7 8 9 9 9 10 10 10 10 11 13 29 56 63 59 73 60 36 66 67 35 22 16 15 11
10 9 4 4 3 3 3 4 4 4 4 5 5 4 4 5 5 5 6 6 7 7 8 8 9 10 10 10 11 11 11 11 12 24 45 72 74 42 30 36 50 97 63 31 22 16 13
8 11 7 5 4 3 3 3 4 4 4 5 5 5 5 5 5 5 6 6 6 6 7 8 8 9 10 10 11 11 11 11 12 14 28 53 75 70 29 33 40 48 45 40 30 16 12
38 8 12 8 5 4 4 3 3 4 4 5 5 4 5 5 4 5 5 5 5 5 6 6 7 8 9 10 10 12 12 12 12 12 14 27 48 72 88 99 98 55 52 51 36 21 18
78 31 8 12 10 4 5 4 4 4 4 4 4 5 5 5 6 6 6 7 5 6 6 6 6 7 7 8 10 11 12 12 12 11 11 11 20 37 64 80 90 95 72 63 59 51 33
63 66 31 9 12 12 5 4 4 5 5 5 5 5 5 5 6 7 7 8 8 8 8 8 7 6 7 7 8 10 10 12 12 12 11 11 11 13 26 42 56 60 42 32 31 26 38
65 64 61 34 10 12 13 11 4 4 4 4 5 5 6 8 8 9 9 9 11 11 10 10 10 8 7 7 8 8 9 10 12 12 12 11 10 9 9 12 26 37 38 32 25 36 44
71 62 67 64 40 11 14 14 14 9 5 5 5 5 5 6 9 10 9 10 11 11 11 11 12 12 11 10 8 8 8 10 10 12 12 12 11 10 9 9 8 9 16 22 22 24 30
80 66 62 64 62 47 11 13 14 15 14 9 8 6 6 5 5 6 8 9 10 12 12 12 12 12 13 12 11 9 8 8 9 10 11 12 12 11 10 9 10 9 8 7 6 7 8
85 69 62 64 60 56 56 18 11 13 13 13 13 13 13 10 9 8 7 7 9 10 12 13 14 14 13 13 13 11 10 8 8 8 10 10 12 10 10 10 9 9 10 9 8 8 8
82 71 60 57 61 56 53 54 27 12 12 13 12 13 13 14 15 17 17 17 12 12 12 13 14 15 16 16 15 14 13 10 9 9 8 10 9 11 9 7 7 7 7 9 9 9 9
56 78 64 57 63 55 51 50 41 31 24 14 13 13 13 13 14 14 16 19 21 21 20 19 17 18 18 18 19 20 18 15 12 9 9 8 9 9 10 10 7 5 4 6 7 8 8
50 60 73 65 58 55 53 48 39 32 34 31 22 16 14 14 13 14 14 15 15 18 20 23 24 23 22 21 20 20 20 21 18 15 12 10 9 8 9 8 8 6 5 4 5 6 6
57 54 72 66 49 52 49 50 52 39 34 31 35 37 37 24 21 15 11 11 12 14 16 16 16 18 21 25 25 26 25 23 24 24 18 16 12 10 9 8 8 9 7 5 5 5 6
58 58 58 59 52 56 47 46 51 53 43 38 42 37 38 53 56 42 30 21 13 10 12 12 14 13 14 16 19 24 28 30 28 28 28 26 20 16 12 10 8 8 9 8 5 5 5
59 64 58 53 54 54 48 42 47 47 51 47 46 44 44 49 54 55 53 45 35 30 18 10 10 10 11 13 13 14 16 19 24 29 33 32 30 27 20 17 12 10 8 9 9 7 5
62 65 68 59 51 52 54 50 42 49 52 52 53 48 44 48 53 54 61 62 59 51 40 36 20 15 11 9 10 9 10 10 12 16 22 28 35 34 32 28 21 17 12 10 9 10 9
72 72 69 56 55 53 50 56 52 46 48 51 56 54 51 46 55 52 56 61 63 73 65 52 47 42 32 25 17 9 11 12 9 8 11 15 21 33 36 36 33 28 20 14 13 11 10
55 64 73 71 66 55 56 54 54 53 52 49 53 53 48 46 52 52 56 63 63 66 76 72 68 65 53 42 38 28 14 15 16 10 9 11 13 16 23 30 38 39 36 27 20 13 12
55 58 58 61 70 77 66 54 57 59 57 53 53 55 51 48 45 52 56 58 60 70 66 70 78 80 82 69 50 40 40 35 32 26 13 13 14 12 14 16 14 15 33 43 41 28 19

GFSGBSN_500_rhum_135.txt.gz
RH
2 2 6 17 28 55 44 44 43 38 70 68 76 57 36 72 81 57 68 48 53 84 79 85 86 84 75 70 59 63 59 57 71 88 87 81 69 54 50 49 49 46 43 38 34 32 29
2 2 4 12 26 40 68 25 44 77 82 81 85 81 71 81 98 92 92 62 69 78 69 67 60 56 54 49 40 40 39 52 64 68 73 69 66 68 68 67 61 52 45 39 32 29 28
2 2 2 9 13 19 41 62 51 62 97 94 89 97 100 100 97 93 62 62 66 59 53 53 51 44 36 33 32 32 30 26 35 44 50 52 56 47 41 34 29 25 24 21 19 16 14
2 2 2 4 11 12 16 25 43 59 77 75 63 68 74 75 63 54 50 52 49 46 41 32 20 13 10 11 10 6 7 11 15 19 23 22 23 26 29 30 31 33 33 38 26 25 21
2 2 2 2 5 10 13 22 25 30 51 69 70 50 52 46 45 45 41 35 27 18 10 6 5 5 5 5 5 5 6 8 9 13 16 17 20 22 23 22 23 26 39 56 58 56 50
2 2 3 2 2 6 9 17 13 19 22 37 58 57 45 37 37 29 19 10 7 6 6 5 5 6 6 6 6 7 7 7 9 13 17 20 27 30 27 22 18 16 13 13 16 27 30
2 3 3 3 3 3 5 7 10 10 10 10 10 14 11 9 9 7 7 7 7 5 5 5 6 7 7 7 7 8 8 8 10 18 33 45 50 64 74 61 35 26 18 14 14 14 14
3 3 3 3 3 3 3 4 4 5 4 4 4 4 4 5 5 6 6 7 6 6 7 8 8 8 8 8 9 9 10 9 10 21 40 53 56 55 80 84 46 29 27 18 14 14 18
4 3 3 3 3 3 3 3 4 4 4 4 4 4 4 4 5 6 6 7 7 7 8 8 8 9 9 10 10 10 10 11 11 23 46 61 64 33 46 49 33 46 32 22 14 12 14
11 4 3 3 3 3 3 3 4 4 4 5 5 5 5 5 5 6 6 6 7 7 8 8 8 9 10 11 11 11 11 11 12 18 37 67 51 31 30 38 46 94 93 28 20 16 11
13 12 4 4 3 3 4 3 3 4 4 4 5 5 5 5 5 5 5 5 6 5 6 7 8 9 10 11 12 12 12 12 11 14 27 60 79 97 80 42 48 70 95 47 26 18 12
76 14 12 6 4 4 4 4 4 3 3 4 4 4 5 5 5 5 5 5 5 6 6 7 7 7 9 10 11 12 13 12 11 12 17 27 67 79 100 80 51 54 58 48 33 22 15
85 78 20 13 8 4 4 4 4 4 4 4 5 6 6 7 7 8 8 7 7 7 6 6 7 7 8 9 10 11 13 13 12 11 11 15 28 49 72 90 97 77 77 67 48 33 44
84 86 81 35 13 13 6 4 5 5 5 5 6 6 8 8 10 10 10 10 10 10 10 10 9 9 8 8 8 10 11 12 13 12 10 10 11 19 42 46 49 42 41 51 59 66 33
86 93 90 84 50 13 13 12 5 4 5 5 5 5 7 9 11 13 13 12 12 13 12 14 12 12 10 9 9 8 9 10 12 12 11 10 10 10 10 20 27 27 28 24 19 16 24
80 87 88 85 84 62 18 12 13 13 7 6 5 5 5 5 6 8 10 12 12 13 14 13 13 13 12 11 10 8 8 8 10 11 11 10 9 9 9 9 8 12 18 24 28 29 23
61 69 82 86 83 81 77 40 18 13 13 13 12 10 7 6 6 6 6 7 10 12 12 14 15 15 15 14 13 11 9 9 8 9 10 9 8 8 7 7 8 8 8 7 8 11 16
61 56 66 80 80 78 72 79 62 31 13 12 12 13 13 16 13 13 13 12 12 10 11 12 14 15 16 17 17 16 14 10 9 8 8 10 9 8 7 5 6 7 8 8 7 7 6
68 57 54 65 70 73 69 64 75 66 38 19 14 13 13 13 13 13 13 14 16 19 19 16 15 16 16 17 18 19 20 18 14 10 9 8 9 9 8 8 6 5 6 8 8 8 7
71 56 53 56 62 59 59 61 60 73 65 44 30 22 17 17 15 14 13 13 12 11 12 17 20 21 22 21 19 18 18 20 22 18 12 10 8 8 9 7 6 5 5 6 7 7 8
30 54 56 52 57 61 55 63 56 55 64 57 54 49 37 26 25 23 20 18 13 11 10 11 13 16 17 20 23 23 24 24 24 24 22 16 12 10 8 9 9 7 6 5 6 7 7
35 46 56 56 51 63 63 55 59 53 48 51 52 60 54 55 53 46 47 42 31 21 16 12 9 9 12 16 14 18 20 24 26 29 26 26 23 17 11 10 8 10 8 6 5 6 7
38 36 53 56 60 58 59 56 52 53 50 45 44 47 48 56 57 57 67 66 58 45 35 32 26 16 10 10 12 13 12 12 15 19 26 30 28 29 24 16 11 9 9 10 7 6 6
41 42 47 55 54 59 60 57 54 56 47 40 39 42 43 51 50 52 56 62 67 65 64 53 44 38 29 20 12 11 10 10 10 9 11 12 21 31 32 29 23 15 11 9 9 10 7
39 46 44 53 54 54 60 56 57 55 52 50 44 40 42 46 52 52 51 52 57 66 66 65 69 59 50 43 37 25 14 10 11 10 10 10 11 12 21 31 33 31 21 15 11 9 9
44 46 50 51 50 50 60 62 56 57 53 51 49 52 44 40 54 49 56 52 50 50 61 62 66 75 69 60 55 48 35 24 11 13 14 12 9 11 10 13 20 32 34 29 19 13 12
50 51 56 57 54 53 52 66 66 61 55 52 49 48 49 49 57 47 51 56 54 46 46 53 60 70 67 70 71 68 64 39 28 22 22 20 14 12 12 12 13 16 20 33 36 28 19
58 52 53 60 62 58 53 55 68 64 58 54 52 49 46 46 54 56 55 54 58 56 49 45 52 79 69 73 76 86 72 63 44 39 31 27 24 20 16 14 13 12 13 15 22 39 40
72 60 54 56 58 60 54 50 54 68 70 65 60 64 60 50 45 56 56 70 64 63 65 55 59 69 77 81 67 68 80 76 71 56 44 42 38 37 28 20 14 12 14 11 10 11 23